Flag for Azerbaijan Weather past 2 weeks in Sumqayit, Azerbaijan

Now
82 °F

Passing clouds.


Feels Like: 87 °F
Forecast: 71 / 89 °F
Wind: 14 mph from South

Location: Baku / Bine Airport

Current Time: Sep 4, 2015 at 10:55:45 AM

Latest Report: Sep 4, 2015 at 10:30 AM


Visibility: N/A

Pressure: 29.95 "Hg

Humidity: 70%

Dew point: 72 °F

Location of SumqayitLocation

Historic Weather in Sumqayit — Graph

°F

Sumqayit temperature yesterday

Maximum temperature yesterday: 86 °F (at 1:00 PM)
Minimum temperature yesterday: 72 °F (at 5:00 AM)
Average temperature yesterday: 79 °F

Past Weeks' High & Low Weather Summary

 TemperatureHumidityPressure
High91 °F (Sep 2, 2:30 PM)94% (Sep 1, 4:30 AM)30.12 "Hg (Sep 1, 4:30 AM)
Low61 °F (Aug 28, 5:00 AM)21% (Aug 30, 1:30 PM)29.71 "Hg (Aug 24, 1:00 PM)
Average77 °F61%29.97 "Hg
* Reported Aug 20 9:00 AM — Sep 4 9:30 AM, Sumqayit, Weather by CustomWeather, © 2015

Note: Actual official high and low records may vary slightly from our data, if they occured in-between our weather recording intervals... More about our weather records

Advertising

Sumqayit weather history for previous 24 hours

 ConditionsComfort  
Time TempWeatherWind HumidityBarometerVisibility
9:30 AM
Fri, Sep 4
81 °FSunny.9 mph74%29.95 "Hg10 mi
9:00 AM79 °FSunny.8 mph79%29.95 "Hg10 mi
8:30 AM75 °FClear.5 mph89%29.95 "Hg5 mi
8:00 AM72 °FFog.6 mph94%29.95 "Hg3 mi
7:30 AM72 °FFog.7 mph94%29.95 "Hg2 mi
7:00 AM72 °FFog.7 mph94%29.95 "Hg3 mi
6:30 AM72 °FClear.8 mph94%29.92 "Hg10 mi
6:00 AM72 °FClear.7 mph94%29.92 "Hg10 mi
5:30 AM72 °FClear.8 mph94%29.92 "Hg10 mi
5:00 AM72 °FClear.7 mph94%29.92 "Hg10 mi
4:30 AM73 °FClear.5 mph94%29.92 "Hg10 mi
4:00 AM73 °FClear.6 mph94%29.92 "Hg10 mi
3:30 AM75 °FClear.7 mph89%29.92 "Hg10 mi
2:00 AM77 °FClear.9 mph83%29.92 "Hg10 mi
1:30 AM77 °FClear.10 mph83%29.92 "Hg10 mi
1:00 AM77 °FClear.12 mph83%29.92 "Hg10 mi
12:30 AM77 °FClear.10 mph83%29.92 "Hg10 mi
12:00 AM77 °FClear.9 mph83%29.95 "Hg10 mi
11:30 PM
Thu, Sep 3
77 °FClear.10 mph83%29.92 "Hg10 mi
11:00 PM77 °FClear.10 mph83%29.95 "Hg10 mi
10:30 PM77 °FClear.12 mph83%29.95 "Hg10 mi
10:00 PM79 °FClear.14 mph79%29.95 "Hg10 mi
9:30 PM79 °FClear.14 mph79%29.95 "Hg10 mi
9:00 PM79 °FSunny.13 mph74%29.95 "Hg10 mi
8:30 PM79 °FSunny.13 mph70%29.92 "Hg10 mi
8:00 PM79 °FSunny.17 mph70%29.92 "Hg10 mi
7:30 PM81 °FSunny.18 mph66%29.92 "Hg10 mi
7:00 PM81 °FSunny.18 mph70%29.92 "Hg10 mi
6:30 PM82 °FSunny.20 mph66%29.92 "Hg10 mi
6:00 PM82 °FSunny.21 mph62%29.92 "Hg10 mi
5:30 PM84 °FSunny.21 mph58%29.92 "Hg10 mi
5:00 PM84 °FSunny.21 mph55%29.92 "Hg10 mi
4:30 PM84 °FSunny.20 mph55%29.92 "Hg10 mi
4:00 PM86 °FSunny.22 mph49%29.92 "Hg10 mi
3:30 PM86 °FSunny.21 mph55%29.92 "Hg10 mi
3:00 PM86 °FSunny.18 mph55%29.95 "Hg10 mi
2:30 PM86 °FSunny.17 mph59%29.95 "Hg10 mi
2:00 PM84 °FSunny.16 mph62%29.95 "Hg10 mi
1:30 PM86 °FSunny.16 mph55%29.95 "Hg10 mi
1:00 PM86 °FSunny.18 mph52%29.95 "Hg10 mi
12:30 PM84 °FSunny.18 mph51%29.95 "Hg10 mi
12:00 PM84 °FSunny.18 mph55%29.95 "Hg10 mi
11:30 AM82 °FSunny.18 mph58%29.95 "Hg10 mi
11:00 AM81 °FSunny.17 mph66%29.98 "Hg10 mi
10:30 AM81 °FSunny.20 mph70%29.95 "Hg10 mi
10:00 AM79 °FSunny.17 mph74%29.95 "Hg10 mi
Weather by CustomWeather, © 2015

See weather overviewHow to use our weather pages